GEFSMA_con_cape1000_084.txt.gz
Probability
68 61 52 55 58 65 58 61 58 55 68 74 74 68 55 55 48 26 16 52 84 90 97 100 94 97 97 100 100 100 100 97 97 97 100 100 100 100 100 100 100 100 97
52 39 23 23 23 29 45 48 45 45 45 45 48 39 35 39 42 26 23 45 71 81 84 87 94 90 94 97 97 100 100 100 97 97 97 97 100 100 100 100 100 100 94
23 26 19 19 13 13 10 13 13 19 16 16 16 23 23 26 26 19 23 32 55 84 81 81 90 90 90 94 100 100 100 97 97 97 97 97 97 100 100 100 100 94 90
13 13 13 13 13 10 6 6 3 3 3 3 3 3 10 6 13 13 10 23 26 39 58 74 84 84 90 94 97 100 100 97 97 97 97 97 97 97 97 100 97 90 81
13 13 6 3 3 3 3 3 3 3 3 3 3 0 0 0 3 6 16 16 16 23 23 39 71 74 87 97 97 100 100 97 97 97 97 97 94 94 90 87 87 84 68
10 3 0 0 0 0 0 0 0 0 0 0 0 0 0 0 3 3 0 3 6 23 16 13 42 58 81 90 100 100 100 100 97 97 97 97 94 84 81 68 68 68 52
6 6 3 3 0 0 0 0 0 0 0 0 0 0 0 0 0 0 0 0 3 13 10 19 23 32 55 74 97 97 100 100 100 97 97 97 97 87 74 61 35 35 35
3 3 3 0 0 0 0 0 0 0 0 0 0 0 0 0 0 0 0 0 0 0 3 13 19 19 13 32 45 87 100 100 100 97 94 90 87 84 81 74 52 32 32
0 0 0 0 0 0 0 0 0 0 0 0 0 0 0 0 0 0 0 0 0 0 0 6 16 16 10 10 19 45 94 97 97 100 97 90 84 81 81 74 65 39 29
0 0 0 0 0 3 3 0 0 0 0 0 0 0 0 0 0 0 0 0 0 0 0 0 3 13 16 6 6 13 45 74 94 97 94 90 84 71 68 71 71 65 32
0 0 0 0 0 0 0 0 0 0 0 0 0 0 0 0 0 0 0 0 0 0 0 0 0 0 10 3 0 3 10 32 52 90 94 90 90 81 81 81 74 77 68
0 0 0 0 0 0 0 0 0 0 0 0 0 0 0 0 0 0 0 0 0 0 0 0 0 0 3 3 6 13 10 3 16 32 45 68 81 74 71 81 71 77 77
0 0 0 0 0 0 0 0 0 0 0 0 0 0 0 0 0 0 0 0 0 0 0 0 0 0 0 0 6 13 13 3 0 3 16 29 45 42 48 55 61 71 77
0 0 0 0 0 0 0 0 0 0 0 0 0 0 0 0 0 0 0 0 0 0 0 0 0 0 0 0 0 0 3 0 0 0 0 6 13 16 19 29 29 45 45
0 0 0 0 0 0 0 0 0 0 0 0 0 0 0 0 0 0 0 0 0 0 0 0 0 0 0 0 0 0 0 0 0 0 0 0 0 3 3 3 3 3 3
0 0 0 0 0 0 0 0 0 0 0 0 0 0 0 0 0 0 0 0 0 0 0 0 0 3 0 0 0 0 0 0 0 0 0 0 0 0 0 0 0 0 0
0 0 0 0 0 0 0 0 0 0 0 0 0 0 0 0 0 0 0 0 0 0 0 0 0 0 0 0 0 0 0 0 0 0 0 0 0 0 0 0 0 0 0
0 0 0 0 0 0 0 0 0 0 0 0 0 0 0 0 0 0 0 0 0 0 0 0 0 0 0 0 0 0 0 0 0 0 0 0 0 0 0 0 0 0 0
0 0 0 0 0 0 0 0 0 0 0 0 0 0 0 0 0 0 0 0 0 0 0 0 0 0 0 0 0 0 0 0 0 0 0 0 0 0 0 0 0 0 0
0 0 0 0 0 0 0 0 0 0 0 0 0 0 0 0 0 0 0 0 0 0 0 0 0 0 0 0 0 0 0 0 0 0 0 0 0 0 0 0 0 0 0
0 0 0 0 0 0 0 0 0 0 0 0 0 0 0 0 0 0 0 0 0 0 0 0 0 0 0 0 0 0 0 0 0 0 0 0 0 0 0 0 0 0 0
0 0 0 0 0 0 0 0 0 0 0 0 0 0 0 0 0 0 0 0 0 0 0 0 0 0 0 0 0 0 0 0 0 0 0 0 0 0 0 0 0 0 0
0 0 0 0 0 0 0 0 0 0 0 0 0 0 0 0 0 0 0 0 0 0 0 0 0 0 0 0 0 0 0 0 0 0 0 0 0 0 0 0 0 0 0
0 0 0 0 0 0 0 0 0 0 0 0 0 0 0 0 0 0 0 0 0 0 0 0 0 0 0 0 0 0 0 0 0 0 0 0 0 0 0 0 0 0 0
0 0 0 0 0 0 0 0 0 0 0 0 0 0 0 0 0 0 0 0 0 0 0 0 0 0 0 0 0 0 0 0 0 0 0 0 0 0 0 0 0 0 0
0 0 0 0 0 0 0 0 0 0 0 0 0 0 0 0 0 0 0 0 0 0 0 0 0 0 0 0 0 0 0 0 0 0 0 0 0 0 0 0 0 0 0

GEFSMA_con_cape1000_090.txt.gz
Probability
71 61 61 52 55 58 68 74 71 65 61 65 74 84 84 81 81 77 55 77 90 87 87 100 100 100 100 100 100 100 100 100 100 100 100 100 100 100 97 97 97 97 97
52 55 35 19 16 19 26 32 45 48 42 48 52 52 55 61 68 68 65 55 81 90 94 100 100 100 100 100 100 97 97 100 100 100 100 100 100 100 100 100 97 97 94
23 19 16 16 13 13 6 10 13 10 23 16 23 29 32 39 45 48 48 39 35 68 84 97 100 100 100 100 100 100 100 97 100 100 100 100 100 100 100 100 100 97 84
13 13 13 10 3 3 6 6 0 3 6 10 6 3 6 19 26 32 32 32 32 26 65 77 97 97 97 97 94 94 100 100 97 97 97 97 100 100 100 100 97 90 87
0 0 3 3 3 0 3 3 3 0 0 0 3 3 3 6 6 10 13 13 19 29 42 55 81 87 84 87 84 90 97 100 100 97 97 97 97 97 90 94 94 87 68
0 0 0 0 0 0 0 0 0 0 0 0 0 0 3 3 3 3 3 6 6 13 19 19 58 61 74 74 77 77 84 94 100 100 97 97 97 97 81 77 68 68 48
0 0 0 0 0 0 0 0 0 0 0 0 0 0 0 0 3 3 0 3 0 3 10 35 32 35 42 61 61 71 84 94 97 100 97 97 97 94 81 68 48 48 39
0 0 0 0 0 0 0 0 0 0 0 0 0 0 0 0 0 0 0 0 0 0 3 3 19 19 23 39 29 45 71 81 94 97 100 94 90 87 77 68 45 23 23
0 0 0 0 0 0 0 0 0 0 0 0 0 0 0 0 0 0 0 0 0 0 0 10 10 13 16 23 32 19 52 71 84 94 100 94 87 74 68 58 55 26 23
0 0 0 0 0 0 0 0 0 0 0 0 0 0 0 0 0 0 0 0 0 0 0 0 3 3 10 19 16 10 23 32 65 84 97 94 87 71 61 65 74 61 23
0 0 0 0 0 0 0 0 0 0 0 0 0 0 0 0 0 0 0 0 0 0 0 0 0 0 0 13 16 13 3 10 16 52 77 94 84 71 74 77 77 77 65
0 0 0 0 0 0 0 0 0 0 0 0 0 0 0 0 0 0 0 0 0 0 0 0 0 0 3 3 3 0 0 0 0 13 29 39 61 68 74 77 77 77 74
0 0 0 0 0 0 0 0 0 0 0 0 0 0 0 0 0 0 0 0 0 0 0 0 0 3 0 6 3 0 0 0 0 0 3 26 35 48 48 55 74 74 74
0 0 0 0 0 0 0 0 0 0 0 0 0 0 0 0 0 0 0 0 0 0 0 0 0 0 0 0 0 0 3 0 0 0 0 3 3 13 26 29 39 48 48
0 0 0 0 0 0 0 0 0 0 0 0 0 0 0 0 0 0 0 0 0 0 0 0 0 0 0 0 0 0 6 0 0 0 0 0 0 0 3 10 10 13 16
0 0 0 0 0 0 0 0 0 0 0 0 0 0 0 0 0 0 0 0 0 0 0 0 0 0 0 0 0 0 3 0 0 0 0 0 0 0 0 0 0 0 0
0 0 0 0 0 0 0 0 0 0 0 0 0 0 0 0 0 0 0 0 0 0 0 0 0 0 0 0 0 0 0 0 0 0 0 0 0 0 0 0 0 0 0
0 0 0 0 0 0 0 0 0 0 0 0 0 0 0 0 0 0 0 0 0 0 0 0 0 0 0 0 0 0 0 0 0 0 0 0 0 0 0 0 0 0 0
0 0 0 0 0 0 0 0 0 0 0 0 0 0 0 0 0 0 0 0 0 0 0 0 0 0 0 0 0 0 0 0 0 0 0 0 0 0 0 0 0 0 0
0 0 0 0 0 0 0 0 0 0 0 0 0 0 0 0 0 0 0 0 0 0 0 0 0 0 0 0 0 0 0 0 0 0 0 0 0 0 0 0 0 0 0
0 0 0 0 0 0 0 0 0 0 0 0 0 0 0 0 0 0 0 0 0 0 0 0 0 0 0 0 0 0 0 0 0 0 0 0 0 0 0 0 0 0 0
0 0 0 0 0 0 0 0 0 0 0 0 0 0 0 0 0 0 0 0 0 0 0 0 0 0 0 0 0 0 0 0 0 0 0 0 0 0 0 0 0 0 0
0 0 0 0 0 0 0 0 0 0 0 0 0 0 0 0 0 0 0 0 0 0 0 0 0 0 0 0 0 0 0 0 0 0 0 0 0 0 0 0 0 0 0
0 0 0 0 0 0 0 0 0 0 0 0 0 0 0 0 0 0 0 0 0 0 0 0 0 0 0 0 0 0 0 0 0 0 0 0 0 0 0 0 0 0 0
0 0 0 0 0 0 0 0 0 0 0 0 0 0 0 0 0 0 0 0 0 0 0 0 0 0 0 0 0 0 0 0 0 0 0 0 0 0 0 0 0 0 0
0 0 0 0 0 0 0 0 0 0 0 0 0 0 0 0 0 0 0 0 0 0 0 0 0 0 0 0 0 0 0 0 0 0 0 0 0 0 0 0 0 0 0

GEFSMA_con_cape1000_096.txt.gz
Probability
84 81 84 84 87 87 84 81 84 84 84 77 74 74 77 71 71 52 58 90 94 94 94 90 94 97 97 100 100 100 100 100 100 100 100 100 100 100 100 100 100 94 94
77 81 74 84 81 81 77 84 74 81 77 77 77 74 84 71 65 74 74 87 90 90 94 94 90 94 97 97 100 100 100 100 100 100 100 100 100 100 100 100 100 97 90
61 65 61 58 55 58 65 68 48 68 68 58 61 68 77 81 65 74 77 81 77 87 94 97 97 97 100 97 100 100 100 100 100 100 100 100 100 100 100 100 100 100 94
52 48 39 42 48 45 39 42 45 42 45 65 58 52 65 68 58 65 68 84 81 65 84 94 97 100 97 97 97 100 100 100 100 100 100 100 100 100 100 100 100 97 81
29 23 23 32 35 29 35 29 29 35 39 52 52 52 42 48 61 39 42 48 71 74 68 84 94 90 90 87 94 100 100 100 100 100 100 100 100 100 94 94 94 87 71
16 13 10 13 10 16 23 23 26 39 35 42 16 13 23 29 32 32 39 26 45 45 45 55 81 65 87 97 94 94 100 100 97 94 97 97 100 94 84 87 81 77 61
3 6 3 3 10 10 6 13 13 13 16 19 19 16 10 13 16 29 32 29 26 26 39 48 65 65 71 55 77 94 90 97 90 90 90 100 100 94 84 81 65 52 42
3 3 6 6 6 6 13 10 10 6 6 6 10 10 3 3 10 3 19 29 19 19 19 19 65 71 55 65 45 65 81 87 90 84 94 90 97 94 84 84 45 26 19
3 3 3 3 3 3 6 6 6 3 3 6 6 3 0 3 10 6 3 13 16 29 23 23 29 52 58 68 68 23 55 55 81 84 87 87 81 77 81 74 55 26 19
0 0 3 3 3 3 3 3 0 3 3 3 10 6 0 0 0 0 0 6 6 13 10 13 19 32 45 58 68 39 26 29 42 71 87 84 81 65 71 68 71 52 19
0 0 3 3 6 3 0 0 0 0 3 3 0 3 3 3 0 0 0 0 3 0 10 10 23 29 42 48 65 48 10 10 26 39 58 74 74 71 68 74 84 84 68
0 0 0 0 3 0 0 0 0 0 0 0 0 0 0 0 0 0 0 0 0 0 3 6 10 16 32 35 29 10 3 3 3 13 29 48 61 68 68 81 84 87 84
0 3 0 0 0 0 0 0 0 0 0 0 0 0 0 0 0 0 0 0 0 0 3 3 3 19 13 23 42 3 3 0 0 0 6 13 32 52 42 71 81 81 87
0 0 0 0 0 0 0 0 0 0 0 0 0 0 0 0 3 3 0 0 0 0 0 3 3 10 16 23 10 0 6 0 0 0 0 0 0 10 23 19 23 42 58
0 0 0 0 0 0 0 0 0 0 0 0 0 0 0 0 0 3 0 0 0 0 0 0 0 0 3 23 0 6 23 0 0 0 0 0 0 0 3 3 3 10 13
0 0 0 0 0 0 0 0 0 0 0 0 0 0 0 0 0 0 3 3 0 0 0 0 3 3 0 0 0 6 13 0 0 0 0 0 0 0 0 0 0 0 0
0 0 0 0 0 0 0 0 0 0 0 0 0 0 0 0 0 0 0 0 3 3 0 0 0 0 6 6 0 6 6 3 10 0 0 0 0 0 0 0 0 0 0
0 0 0 0 0 0 0 0 0 0 0 0 0 0 0 0 0 0 0 0 0 0 0 0 0 0 6 6 0 10 3 3 3 0 0 0 0 0 0 0 0 0 0
0 0 0 0 0 0 0 0 0 0 0 0 0 0 0 0 0 0 0 0 0 0 0 0 0 3 0 3 0 0 0 10 3 0 0 0 0 0 0 0 0 0 0
0 0 0 0 0 0 0 0 0 0 0 0 0 0 0 0 0 0 0 0 0 0 0 0 0 0 0 0 0 3 6 6 3 0 0 0 0 0 0 0 0 0 0
0 0 0 0 0 0 0 0 0 0 0 0 0 0 0 0 0 0 0 0 0 0 0 0 0 0 0 3 0 0 3 6 3 0 0 0 0 0 0 0 0 0 0
0 0 0 0 0 0 0 0 0 0 0 0 0 0 0 0 0 0 0 0 0 0 0 0 0 0 0 0 3 0 0 3 3 3 6 0 0 0 0 0 0 0 0
0 0 0 0 0 0 0 0 0 0 0 0 0 0 0 0 0 0 0 0 0 0 0 0 0 0 0 0 3 0 0 0 0 0 3 0 0 0 0 0 0 0 0
0 0 0 0 0 0 0 0 0 0 0 0 0 0 0 0 0 0 0 0 0 0 0 0 0 0 0 0 3 3 3 3 3 3 6 3 3 3 0 0 0 0 0
0 0 0 0 0 0 0 0 0 0 0 0 0 0 0 0 0 0 0 0 0 0 0 0 0 0 0 0 0 0 3 0 0 3 3 6 3 3 0 0 0 0 0
0 0 0 0 0 0 0 0 0 0 0 0 0 0 0 0 0 0 0 0 0 0 0 0 0 0 0 0 0 0 0 0 0 0 0 0 0 0 0 0 0 0 0

GEFSMA_con_cape1000_102.txt.gz
Probability
81 87 94 90 84 81 84 90 87 77 74 74 74 74 68 65 61 58 74 90 87 87 90 94 100 100 100 100 100 100 100 100 100 100 100 100 100 100 97 97 97 97 87
84 84 81 84 87 90 77 81 81 81 71 74 74 71 68 58 65 58 61 77 90 90 90 94 94 97 100 100 100 100 100 100 100 100 100 100 100 100 100 97 97 97 94
71 68 71 74 68 71 68 71 68 68 68 61 65 58 65 71 65 65 68 74 74 84 87 94 94 97 97 100 100 100 100 100 100 100 100 100 100 100 100 100 97 97 87
45 48 55 58 55 58 58 58 61 61 58 58 55 48 45 58 65 68 68 68 71 65 81 87 90 90 94 100 100 100 100 100 100 100 100 100 100 100 100 100 100 94 87
26 39 48 52 39 39 45 35 45 48 42 45 35 32 29 39 48 42 48 61 65 68 74 77 90 87 90 90 100 100 100 100 100 100 100 100 100 100 100 97 97 87 74
13 26 32 45 26 29 39 39 32 32 26 29 6 3 23 19 45 39 39 39 39 58 58 61 77 81 87 90 94 100 100 100 100 100 100 100 100 100 94 87 81 77 55
23 26 29 26 26 26 19 19 13 13 13 19 13 6 10 13 29 32 48 42 32 39 45 48 48 58 68 87 90 97 100 100 100 100 100 100 100 97 87 84 68 52 42
23 6 23 13 19 19 13 19 19 6 6 10 13 0 0 10 19 10 29 35 23 32 42 29 35 48 42 48 45 81 97 100 100 100 100 100 100 100 90 90 48 39 29
10 16 10 13 16 13 13 10 13 13 6 3 10 0 0 0 0 13 13 16 23 26 26 19 32 45 42 35 42 26 74 87 100 100 100 97 97 87 74 81 61 35 23
10 6 6 3 6 6 10 10 10 3 3 0 3 3 3 0 0 0 0 6 13 16 13 10 6 26 35 42 45 35 29 35 74 94 97 94 90 71 68 71 84 58 32
16 10 3 3 3 3 6 6 10 10 10 0 3 6 0 0 0 0 0 0 6 6 10 13 16 26 35 35 39 23 19 16 26 58 87 94 94 71 65 68 81 87 68
16 3 3 3 3 3 3 3 3 3 3 3 3 0 0 0 0 0 0 0 0 0 6 6 6 13 13 16 19 10 13 6 0 10 39 55 71 68 58 68 81 87 94
6 6 3 3 3 3 3 3 3 0 0 3 3 0 0 0 0 0 0 0 0 0 0 3 6 3 0 0 13 6 3 0 0 0 6 26 32 35 42 48 65 71 90
6 3 3 3 3 3 3 3 0 3 3 0 0 0 0 0 0 0 0 0 0 0 0 0 3 3 6 10 10 0 6 0 0 0 0 0 6 16 26 23 29 42 58
0 0 0 0 0 3 3 3 3 0 0 3 0 0 0 0 0 0 0 0 0 0 0 0 0 3 6 6 3 0 19 0 0 0 0 0 0 0 0 3 0 3 10
0 0 0 0 0 0 0 0 0 0 0 0 0 0 0 0 0 0 0 0 0 0 0 0 0 0 0 0 0 0 6 0 0 0 0 0 0 0 0 0 0 0 0
0 0 0 0 0 0 0 0 0 0 0 0 0 0 0 0 0 0 0 0 0 0 0 0 0 0 0 0 0 0 0 0 0 0 0 0 0 0 0 0 0 0 0
0 0 0 0 0 0 0 0 0 0 0 0 0 0 0 0 0 0 0 0 0 0 0 0 0 0 0 0 0 0 0 0 0 0 0 0 0 0 0 0 0 0 0
0 0 0 0 0 0 0 0 0 0 0 0 0 0 0 0 0 0 0 0 0 0 0 0 0 0 0 0 0 0 0 0 0 0 0 0 0 0 0 0 0 0 0
0 0 0 0 0 0 0 0 0 0 0 0 0 0 0 0 0 0 0 0 0 0 0 0 0 0 0 0 0 0 0 0 0 0 0 0 0 0 0 0 0 0 0
0 0 0 0 0 0 0 0 0 0 0 0 0 0 0 0 0 0 0 0 0 0 0 0 0 0 0 0 0 0 0 0 0 0 0 0 0 0 0 0 0 0 0
0 0 0 0 0 0 0 0 0 0 0 0 0 0 0 0 0 0 0 0 0 0 0 0 0 0 0 0 0 0 0 0 0 0 0 0 0 0 0 0 0 0 0
0 0 0 0 0 0 0 0 0 0 0 0 0 0 0 0 0 0 0 0 0 0 0 0 0 0 0 0 0 0 0 0 0 0 0 0 0 0 0 0 0 0 0
3 0 0 0 0 0 0 0 0 0 0 0 0 0 0 0 0 0 0 0 0 0 0 0 0 0 0 0 0 0 0 0 0 0 0 0 0 0 0 0 0 0 0
3 3 0 0 0 0 0 0 0 0 0 0 0 0 0 0 0 0 0 0 0 0 0 0 0 0 0 0 0 0 0 0 0 0 0 0 0 0 0 0 0 0 0
3 0 0 0 0 0 0 0 0 0 0 0 0 0 0 0 0 0 0 0 0 0 0 0 0 0 0 0 0 0 0 0 0 0 0 0 0 0 0 0 0 0 0